#timestamp,LO_Frequency,Hit,StdDev 
1618624815.6,286047000.2,N
1618624835.4,286047001.2,N
1618624855.3,286046998.6,N
1618624875.1,286046999.3,N
1618624876.0,286046999.3,N
1618624895.8,286046999.5,N
1618624915.7,286046994.9,Y
1618624935.5,286046999.5,P
1618624955.3,286046995.3,P
1618624975.2,286046996.7,N
1618624995.0,286046996.5,N
1618624995.9,286046996.5,N
1618625015.8,286047000.6,N
1618625035.6,286047000.6,N
1618625055.4,286047000.9,N
1618625075.3,286047000.0,N
1618625095.1,286047000.9,N
1618625115.9,286046999.6,N
1618625135.7,286046998.1,N
1618625155.5,286047000.0,N
1618625175.4,286047000.9,N
1618625195.2,286047000.0,N
1618625215.0,286047000.0,N
1618625215.9,286047000.0,N
1618625235.8,286047000.0,N
1618625255.6,286046999.7,N
1618625275.5,286047002.8,N
1618625295.3,286047002.8,N
1618625315.1,286047001.7,N
1618625335.9,286047002.6,N
1618625355.7,286047000.7,N
1618625375.5,286046998.2,N
1618625395.4,286046998.1,N
1618625415.2,286046998.5,N
1618625435.1,286047000.9,N
1618625436.0,286047000.9,N
1618625455.8,286046999.8,N
1618625475.6,286047001.7,N
1618625495.5,286047004.3,N
1618625515.3,286047004.2,N
1618625535.1,286047002.8,N
1618625555.9,286047000.0,N
1618625575.7,286046999.8,N
1618625595.6,286047002.5,N
1618625615.4,286047000.6,N
1618625635.2,286047003.7,N
1618625655.1,286047004.0,N
1618625656.0,286047004.0,N
1618625675.8,286046999.9,N
1618625695.7,286046998.7,N
1618625715.5,286046998.2,N
1618625735.3,286047000.4,N
1618625755.2,286047001.4,N
1618625775.0,286047004.0,N
1618625775.9,286047004.0,N
1618625795.8,286047003.9,N
1618625815.6,286047003.7,N
1618625835.4,286047002.3,N
1618625855.3,286047002.4,N
1618625875.1,286047004.4,N
1618625895.8,286047001.8,N
1618625915.7,286047000.0,N
1618625935.5,286046998.8,N
1618625955.4,286047002.4,N
1618625975.2,286047000.7,N
1618625995.0,286047000.2,N
1618625995.9,286047000.2,N
1618626015.8,286046998.1,N
1618626035.6,286047000.4,N
1618626055.4,286047000.3,N
1618626075.3,286047002.7,N
1618626095.1,286047000.2,N
1618626115.9,286047002.0,N
1618626135.7,286047001.4,N
1618626155.5,286047001.3,N
1618626175.4,286047000.8,N
1618626195.2,286047000.3,N
1618626215.0,286047000.6,N
1618626216.0,286047000.6,N
1618626235.8,286047002.6,N
1618626255.6,286047004.3,N
1618626275.5,286047001.5,N
1618626295.3,286047004.2,N
1618626315.1,286047004.0,N
1618626335.9,286047001.7,N
1618626355.7,286046999.7,N
1618626375.5,286047001.8,N
1618626395.4,286047002.3,N
1618626415.2,286046998.3,N
1618626435.1,286047000.5,N
1618626436.0,286047000.5,N
1618626455.8,286046998.1,N
1618626475.6,286047002.4,N
1618626495.5,286047002.0,N
1618626515.3,286047000.0,N
1618626535.1,286046998.3,N
1618626555.9,286046998.7,N
1618626575.7,286046999.8,N
1618626595.6,286047001.6,N
1618626615.4,286047002.2,N
1618626635.2,286047000.6,N
1618626655.1,286047002.2,N
1618626656.0,286047002.2,N
1618626675.8,286047004.0,N
1618626695.6,286047002.6,N
1618626715.5,286047002.0,N
1618626735.3,286047002.5,N
1618626755.2,286046999.8,N
1618626775.9,286046998.3,N
1618626795.7,286046998.1,N
1618626815.6,286046999.0,N
1618626835.4,286047000.5,N
1618626855.3,286047000.8,N
1618626875.1,286047000.3,N
1618626876.0,286047000.3,N
1618626895.8,286047000.6,N
1618626915.7,286047000.6,N
1618626935.5,286047000.5,N
1618626955.4,286047001.1,N
1618626975.2,286047002.5,N
1618626995.0,286047001.3,N
1618626995.9,286047001.3,N
1618627015.8,286047003.0,N
1618627035.6,286047004.0,N
1618627055.5,286047002.7,N
1618627075.3,286047002.2,N
1618627095.1,286047001.5,N
1618627115.9,286047001.6,N
1618627135.7,286047000.3,N
1618627155.5,286046998.3,N
1618627175.4,286046997.0,N
1618627195.2,286046998.5,N
1618627215.1,286047001.1,N
1618627216.0,286047001.1,N
1618627235.8,286047001.6,N
1618627255.6,286047001.8,N
1618627275.5,286047001.9,N
1618627295.3,286047000.6,N
1618627315.2,286046999.8,N
1618627335.9,286047000.8,N
1618627355.7,286046998.1,N
1618627375.6,286047001.2,N
1618627395.4,286046999.4,N
1618627415.3,286046999.6,N
1618627435.1,286046998.2,N
1618627436.0,286046998.2,N
1618627455.8,286046999.8,N
1618627475.7,286047000.3,N
1618627495.5,286046999.8,N
1618627515.4,286047000.2,N
1618627535.2,286046998.2,N
1618627555.0,286047000.9,N
1618627555.9,286047000.9,N
1618627575.8,286047000.6,N
1618627595.6,286047001.1,N
1618627615.4,286047000.3,N
1618627635.3,286047000.6,N
1618627655.1,286046998.5,N
1618627675.9,286047002.1,N
1618627695.7,286047004.3,Y
1618627715.5,286047003.8,P
1618627735.4,286047003.8,N
1618627755.2,286047004.4,N
1618627775.1,286047002.1,N
1618627776.0,286047002.1,N
1618627795.8,286047004.2,N
1618627815.6,286047003.9,N
1618627835.5,286047004.0,N
1618627855.3,286047000.2,N
1618627875.1,286047000.9,N
1618627895.9,286047001.9,N
1618627915.7,286047005.5,Y
1618627935.6,286046998.1,P
1618627955.4,286046999.0,N
1618627975.2,286046998.6,N
1618627995.1,286047000.1,N
1618627996.0,286047000.1,N
1618628015.8,286047002.8,N
1618628035.7,286047000.3,N
1618628055.5,286047002.2,N
1618628075.3,286047003.8,N
1618628095.2,286047003.9,N
1618628115.0,286047001.8,N
1618628115.9,286047001.8,N
1618628135.8,286047002.5,N
1618628155.6,286046998.6,N
1618628175.4,286046996.6,N
1618628195.3,286046998.7,N
1618628215.1,286046999.0,N
1618628235.8,286046997.7,N
1618628255.7,286046995.3,N
1618628275.5,286046998.2,N
1618628295.4,286046999.3,N
1618628315.2,286046999.1,N
1618628335.0,286046997.2,N
1618628335.9,286046997.2,N
1618628355.8,286046998.3,N
1618628375.6,286046997.4,N
1618628395.4,286046997.0,N
